Flag for Switzerland Weather past 2 weeks in Emmen, Lucerne, Switzerland

Now
59 °F

Cool.


Feels Like: 59 °F
Forecast: 50 / 69 °F
Wind: No wind

Location: Giswil

Current Time: Oct 1, 2014 at 11:23:04 AM

Latest Report: Oct 1, 2014 at 10:00 AM


Visibility: N/A

Pressure: 30.32 "Hg

Humidity: 100%

Dew point: 59 °F

Location of EmmenLocation

Historic Weather in Emmen — Graph

°F

Emmen temperature yesterday

Maximum temperature yesterday: 63 °F (at 1:00 PM)
Minimum temperature yesterday: 56 °F (at 1:00 AM)
Average temperature yesterday: 59 °F

Past Weeks' High & Low Weather Summary

 TemperatureHumidityPressure
High74 °F (Sep 16, 4:00 PM)100% (Sep 17, 6:00 AM)30.37 "Hg (Sep 17, 6:00 AM)
Low41 °F (Sep 24, 7:00 AM)49% (Sep 21, 2:00 PM)29.81 "Hg (Sep 17, 5:00 PM)
Average57 °F85%30.13 "Hg
* Reported Sep 16 10:00 AM — Oct 1 10:00 AM, Emmen, Weather by CustomWeather, © 2014

Note: Actual official high and low records may vary slightly from our data, if they occured in-between our weather recording intervals... More about our weather records

Advertising

Emmen weather history for previous 24 hours

 ConditionsComfort  
Time TempWeatherWind HumidityBarometerVisibility
10:00 AM
Oct 1
59 °FCool.No wind100%30.32 "HgN/A
9:00 AM57 °FCool.No wind100%30.32 "HgN/A
8:00 AM56 °FCool.1 mph100%30.31 "HgN/A
7:00 AM56 °FCool.2 mph100%30.31 "HgN/A
6:00 AM56 °FCool.1 mph100%30.31 "HgN/A
5:00 AM55 °FCool.1 mph100%30.32 "HgN/A
4:00 AM53 °FCool.1 mph100%30.32 "HgN/A
3:00 AM56 °FCool.1 mph100%30.32 "HgN/A
2:00 AM56 °FCool.No wind100%30.32 "HgN/A
1:00 AM56 °FCool.No wind100%30.32 "HgN/A
12:00 AM58 °FCool.No wind100%30.32 "HgN/A
11:00 PM
Sep 30
58 °FCool.No wind100%30.33 "HgN/A
10:00 PM59 °FCool.1 mph100%30.33 "HgN/A
9:00 PM59 °FCool.1 mph100%30.33 "HgN/A
8:00 PM59 °FCool.No wind100%30.32 "HgN/A
7:00 PM61 °FCool.1 mph98%30.31 "HgN/A
6:00 PM61 °FCool.2 mph98%30.31 "HgN/A
5:00 PM62 °FCool.No wind93%30.32 "HgN/A
4:00 PM61 °FCool.No wind95%30.32 "HgN/A
3:00 PM62 °FCool.2 mph96%30.33 "HgN/A
2:00 PM63 °FMild.No wind91%30.31 "HgN/A
1:00 PM63 °FMild.No wind83%30.31 "HgN/A
12:00 PM63 °FMild.No wind82%30.31 "HgN/A
11:00 AM62 °FCool.No wind87%30.32 "HgN/A
Weather by CustomWeather, © 2014

See weather overviewHow to use our weather pages